Tracking 25709 objects as of 25-May-2022
HD Live streaming from Space Station
objects crossing your sky now

ONEWEB-0368

Track ONEWEB-0368 now!
10-day predictions
ONEWEB-0368 is classified as:


NORAD ID: 49294
Int'l Code: 2021-090R
Perigee: 805.3 km
Apogee: 807.1 km
Inclination: 87.8 °
Period: 100.9 minutes
Semi major axis: 7177 km
RCS: Unknown
Launch date: October 14, 2021
Source: United Kingdom (UK)
Launch site: VOSTOCHNY COSMODROME (VOSTO)
aabbcc
Your satellite tracking list
Your tracking list is empty




NASA's NSSDC Master Catalog

Two Line Element Set (TLE):
1 49294U 21090R   22144.91667824 -.00033759  00000-0 -13751-1 0  9993
2 49294  87.7837 223.0732 0001238 172.2423 182.5832 14.27806907  1301
Source of the keplerian elements: AFSPC